Year,Month,Day,Hour,Minute,Value (Times are PST for temperature in C)
2020,01,18,00,00,1.90
2020,01,18,00,01,2.00
2020,01,18,00,02,2.00
2020,01,18,00,03,2.00
2020,01,18,00,04,2.00
2020,01,18,00,05,2.00
2020,01,18,00,06,2.00
2020,01,18,00,07,2.00
2020,01,18,00,08,2.00
2020,01,18,00,09,2.00
2020,01,18,00,10,2.00
2020,01,18,00,11,2.00
2020,01,18,00,12,2.00
2020,01,18,00,13,2.00
2020,01,18,00,14,2.00
2020,01,18,00,15,1.90
2020,01,18,00,16,2.00
2020,01,18,00,17,2.00
2020,01,18,00,18,1.90
2020,01,18,00,19,1.90
2020,01,18,00,20,1.90
2020,01,18,00,21,1.90
2020,01,18,00,22,1.90
2020,01,18,00,23,1.90
2020,01,18,00,24,1.90
2020,01,18,00,25,1.90
2020,01,18,00,26,1.90
2020,01,18,00,27,1.90
2020,01,18,00,28,2.00
2020,01,18,00,29,2.00
2020,01,18,00,30,2.00
2020,01,18,00,31,2.00
2020,01,18,00,32,2.00
2020,01,18,00,33,2.00
2020,01,18,00,34,2.00
2020,01,18,00,35,2.00
2020,01,18,00,36,2.10
2020,01,18,00,37,2.10
2020,01,18,00,38,2.10
2020,01,18,00,39,2.10
2020,01,18,00,40,2.10
2020,01,18,00,41,2.10
2020,01,18,00,42,2.10
2020,01,18,00,43,2.10
2020,01,18,00,44,2.10
2020,01,18,00,45,2.10
2020,01,18,00,46,2.10
2020,01,18,00,47,2.10
2020,01,18,00,48,2.10
2020,01,18,00,49,2.10
2020,01,18,00,50,2.10
2020,01,18,00,51,2.10
2020,01,18,00,52,2.10
2020,01,18,00,53,2.10
2020,01,18,00,54,2.10
2020,01,18,00,55,2.10
2020,01,18,00,56,2.10
2020,01,18,00,57,2.10
2020,01,18,00,58,2.20
2020,01,18,00,59,2.20
2020,01,18,01,00,2.20
2020,01,18,01,01,2.30
2020,01,18,01,02,2.30
2020,01,18,01,03,2.30
2020,01,18,01,04,2.30
2020,01,18,01,05,2.20
2020,01,18,01,06,2.20
2020,01,18,01,07,2.20
2020,01,18,01,08,2.20
2020,01,18,01,09,2.20
2020,01,18,01,10,2.20
2020,01,18,01,11,2.20
2020,01,18,01,12,2.20
2020,01,18,01,13,2.20
2020,01,18,01,14,2.20
2020,01,18,01,15,2.20
2020,01,18,01,16,2.20
2020,01,18,01,17,2.20
2020,01,18,01,18,2.20
2020,01,18,01,19,2.20
2020,01,18,01,20,2.30
2020,01,18,01,21,2.30
2020,01,18,01,22,2.30
2020,01,18,01,23,2.30
2020,01,18,01,24,2.30
2020,01,18,01,25,2.30
2020,01,18,01,26,2.30
2020,01,18,01,27,2.30
2020,01,18,01,28,2.30
2020,01,18,01,29,2.30
2020,01,18,01,30,2.30
2020,01,18,01,31,2.30
2020,01,18,01,32,2.30
2020,01,18,01,33,2.30
2020,01,18,01,34,2.30
2020,01,18,01,35,2.30
2020,01,18,01,36,2.30
2020,01,18,01,37,2.30
2020,01,18,01,38,2.30
2020,01,18,01,39,2.30
2020,01,18,01,40,2.30
2020,01,18,01,41,2.30
2020,01,18,01,42,2.30
2020,01,18,01,43,2.30
2020,01,18,01,44,2.30
2020,01,18,01,45,2.30
2020,01,18,01,46,2.30
2020,01,18,01,47,2.30
2020,01,18,01,48,2.30
2020,01,18,01,49,2.30
2020,01,18,01,50,2.40
2020,01,18,01,51,2.30
2020,01,18,01,52,2.30
2020,01,18,01,53,2.30
2020,01,18,01,54,2.30
2020,01,18,01,55,2.30
2020,01,18,01,56,2.30
2020,01,18,01,57,2.20
2020,01,18,01,58,2.20
2020,01,18,01,59,2.20
2020,01,18,02,00,2.20
2020,01,18,02,01,2.20
2020,01,18,02,02,2.20
2020,01,18,02,03,2.20
2020,01,18,02,04,2.20
2020,01,18,02,05,2.10
2020,01,18,02,06,2.10
2020,01,18,02,07,2.10
2020,01,18,02,08,2.10
2020,01,18,02,09,2.00
2020,01,18,02,10,2.00
2020,01,18,02,11,2.00
2020,01,18,02,12,2.00
2020,01,18,02,13,2.00
2020,01,18,02,14,1.90
2020,01,18,02,15,1.90
2020,01,18,02,16,2.00
2020,01,18,02,17,2.00
2020,01,18,02,18,1.90
2020,01,18,02,19,1.90
2020,01,18,02,20,2.00
2020,01,18,02,21,2.00
2020,01,18,02,22,2.00
2020,01,18,02,23,2.00
2020,01,18,02,24,2.00
2020,01,18,02,25,2.10
2020,01,18,02,26,2.10
2020,01,18,02,27,2.10
2020,01,18,02,28,2.10
2020,01,18,02,29,2.10
2020,01,18,02,30,2.10
2020,01,18,02,31,2.10
2020,01,18,02,32,2.10
2020,01,18,02,33,2.10
2020,01,18,02,34,2.10
2020,01,18,02,35,2.10
2020,01,18,02,36,2.10
2020,01,18,02,37,2.00
2020,01,18,02,38,2.00
2020,01,18,02,39,2.00
2020,01,18,02,40,2.00
2020,01,18,02,41,2.00
2020,01,18,02,42,2.00
2020,01,18,02,43,2.00
2020,01,18,02,44,2.00
2020,01,18,02,45,2.00
2020,01,18,02,46,1.90
2020,01,18,02,47,1.90
2020,01,18,02,48,1.90
2020,01,18,02,49,1.90
2020,01,18,02,50,1.90
2020,01,18,02,51,1.90
2020,01,18,02,52,1.90
2020,01,18,02,53,1.90
2020,01,18,02,54,1.90
2020,01,18,02,55,1.90
2020,01,18,02,56,2.00
2020,01,18,02,57,2.00
2020,01,18,02,58,2.00
2020,01,18,02,59,2.00
2020,01,18,03,00,2.00
2020,01,18,03,01,2.00
2020,01,18,03,02,2.10
2020,01,18,03,03,2.10
2020,01,18,03,04,2.10
2020,01,18,03,05,2.10
2020,01,18,03,06,2.10
2020,01,18,03,07,2.10
2020,01,18,03,08,2.10
2020,01,18,03,09,2.10
2020,01,18,03,10,2.10
2020,01,18,03,11,2.10
2020,01,18,03,12,2.10
2020,01,18,03,13,2.10
2020,01,18,03,14,2.10
2020,01,18,03,15,2.10
2020,01,18,03,16,2.00
2020,01,18,03,17,2.00
2020,01,18,03,18,1.90
2020,01,18,03,19,1.90
2020,01,18,03,20,1.90
2020,01,18,03,21,1.90
2020,01,18,03,22,1.90
2020,01,18,03,23,1.90
2020,01,18,03,24,1.90
2020,01,18,03,25,1.90
2020,01,18,03,26,1.90
2020,01,18,03,27,1.90
2020,01,18,03,28,2.00
2020,01,18,03,29,1.90
2020,01,18,03,30,1.90
2020,01,18,03,31,1.90
2020,01,18,03,32,1.90
2020,01,18,03,33,1.90
2020,01,18,03,34,1.90
2020,01,18,03,35,1.90
2020,01,18,03,36,1.90
2020,01,18,03,37,1.80
2020,01,18,03,38,1.80
2020,01,18,03,39,1.80
2020,01,18,03,40,1.80
2020,01,18,03,41,1.80
2020,01,18,03,42,1.80
2020,01,18,03,43,1.80
2020,01,18,03,44,1.80
2020,01,18,03,45,1.70
2020,01,18,03,46,1.70
2020,01,18,03,47,1.80
2020,01,18,03,48,1.80
2020,01,18,03,49,1.80
2020,01,18,03,50,1.80
2020,01,18,03,51,1.80
2020,01,18,03,52,1.90
2020,01,18,03,53,1.90
2020,01,18,03,54,1.90
2020,01,18,03,55,1.90
2020,01,18,03,56,1.90
2020,01,18,03,57,2.00
2020,01,18,03,58,2.00
2020,01,18,03,59,2.00
2020,01,18,04,00,2.00
2020,01,18,04,01,2.00
2020,01,18,04,02,2.00
2020,01,18,04,03,2.00
2020,01,18,04,04,2.00
2020,01,18,04,05,2.10
2020,01,18,04,06,2.10
2020,01,18,04,07,2.10
2020,01,18,04,08,2.10
2020,01,18,04,09,2.10
2020,01,18,04,10,2.10
2020,01,18,04,11,2.20
2020,01,18,04,12,2.20
2020,01,18,04,13,2.20
2020,01,18,04,14,2.20
2020,01,18,04,15,2.20
2020,01,18,04,16,2.20
2020,01,18,04,17,2.30
2020,01,18,04,18,2.30
2020,01,18,04,19,2.30
2020,01,18,04,20,2.30
2020,01,18,04,21,2.30
2020,01,18,04,22,2.30
2020,01,18,04,23,2.30
2020,01,18,04,24,2.30
2020,01,18,04,25,2.30
2020,01,18,04,26,2.30
2020,01,18,04,27,2.30
2020,01,18,04,28,2.30
2020,01,18,04,29,2.30
2020,01,18,04,30,2.30
2020,01,18,04,31,2.30
2020,01,18,04,32,2.30
2020,01,18,04,33,2.30
2020,01,18,04,34,2.30
2020,01,18,04,35,2.40
2020,01,18,04,36,2.40
2020,01,18,04,37,2.40
2020,01,18,04,38,2.40
2020,01,18,04,39,2.40
2020,01,18,04,40,2.40
2020,01,18,04,41,2.40
2020,01,18,04,42,2.40
2020,01,18,04,43,2.40
2020,01,18,04,44,2.40
2020,01,18,04,45,2.40
2020,01,18,04,46,2.40
2020,01,18,04,47,2.40
2020,01,18,04,48,2.40
2020,01,18,04,49,2.40
2020,01,18,04,50,2.40
2020,01,18,04,51,2.40
2020,01,18,04,52,2.40
2020,01,18,04,53,2.50
2020,01,18,04,54,2.50
2020,01,18,04,55,2.50
2020,01,18,04,56,2.60
2020,01,18,04,57,2.60
2020,01,18,04,58,2.60
2020,01,18,04,59,2.60
2020,01,18,05,00,2.60
2020,01,18,05,01,2.60
2020,01,18,05,02,2.60
2020,01,18,05,03,2.60
2020,01,18,05,04,2.60
2020,01,18,05,05,2.60
2020,01,18,05,06,2.70
2020,01,18,05,07,2.70
2020,01,18,05,08,2.70
2020,01,18,05,09,2.70
2020,01,18,05,10,2.70
2020,01,18,05,11,2.70
2020,01,18,05,12,2.70
2020,01,18,05,13,2.70
2020,01,18,05,14,2.70
2020,01,18,05,15,2.70
2020,01,18,05,16,2.70
2020,01,18,05,17,2.70
2020,01,18,05,18,2.70
2020,01,18,05,19,2.70
2020,01,18,05,20,2.70
2020,01,18,05,21,2.70
2020,01,18,05,22,2.70
2020,01,18,05,23,2.70
2020,01,18,05,24,2.70
2020,01,18,05,25,2.70
2020,01,18,05,26,2.70
2020,01,18,05,27,2.70
2020,01,18,05,28,2.80
2020,01,18,05,29,2.80
2020,01,18,05,30,2.80
2020,01,18,05,31,2.90
2020,01,18,05,32,2.90
2020,01,18,05,33,2.90
2020,01,18,05,34,2.90
2020,01,18,05,35,2.90
2020,01,18,05,36,3.00
2020,01,18,05,37,3.00
2020,01,18,05,38,3.00
2020,01,18,05,39,3.00
2020,01,18,05,40,3.00
2020,01,18,05,41,3.00
2020,01,18,05,42,3.00
2020,01,18,05,43,3.00
2020,01,18,05,44,3.00
2020,01,18,05,45,3.00
2020,01,18,05,46,3.00
2020,01,18,05,47,3.00
2020,01,18,05,48,3.00
2020,01,18,05,49,3.00
2020,01,18,05,50,3.00
2020,01,18,05,51,3.00
2020,01,18,05,52,3.00
2020,01,18,05,53,3.00
2020,01,18,05,54,2.90
2020,01,18,05,55,2.90
2020,01,18,05,56,2.90
2020,01,18,05,57,2.90
2020,01,18,05,58,2.90
2020,01,18,05,59,2.90
2020,01,18,06,00,2.90
2020,01,18,06,01,2.90
2020,01,18,06,02,2.90
2020,01,18,06,03,2.90
2020,01,18,09,43,4.40
2020,01,18,09,44,4.40
2020,01,18,09,45,4.50
2020,01,18,09,46,4.50
2020,01,18,09,47,4.50
2020,01,18,09,48,4.40
2020,01,18,09,49,4.50
2020,01,18,09,50,4.40
2020,01,18,09,51,4.40
2020,01,18,09,52,4.40
2020,01,18,09,53,4.40
2020,01,18,09,54,4.40
2020,01,18,09,55,4.40
2020,01,18,09,56,4.40
2020,01,18,09,57,4.40
2020,01,18,09,58,4.40
2020,01,18,09,59,4.40
2020,01,18,10,00,4.40
2020,01,18,10,01,4.40
2020,01,18,10,02,4.40
2020,01,18,10,03,4.40
2020,01,18,10,04,4.40
2020,01,18,10,05,4.50
2020,01,18,10,06,4.50
2020,01,18,10,07,4.50
2020,01,18,10,08,4.50
2020,01,18,10,09,4.50
2020,01,18,10,10,4.40
2020,01,18,10,11,4.40
2020,01,18,10,12,4.40
2020,01,18,10,13,4.50
2020,01,18,10,14,4.50
2020,01,18,10,15,4.50
2020,01,18,10,16,4.50
2020,01,18,10,17,4.50
2020,01,18,10,18,4.50
2020,01,18,10,19,4.40
2020,01,18,10,20,4.40
2020,01,18,10,21,4.40
2020,01,18,10,22,4.40
2020,01,18,10,23,4.40
2020,01,18,10,24,4.40
2020,01,18,10,25,4.40
2020,01,18,10,26,4.50
2020,01,18,10,27,4.50
2020,01,18,10,28,4.50
2020,01,18,10,29,4.50
2020,01,18,10,30,4.60
2020,01,18,10,31,4.60
2020,01,18,10,32,4.60
2020,01,18,10,33,4.60
2020,01,18,10,34,4.60
2020,01,18,10,35,4.70
2020,01,18,10,36,4.70
2020,01,18,10,37,4.70
2020,01,18,10,38,4.70
2020,01,18,10,39,4.70
2020,01,18,10,40,4.70
2020,01,18,10,41,4.70
2020,01,18,10,42,4.70
2020,01,18,10,43,4.70
2020,01,18,10,44,4.70
2020,01,18,10,45,4.70
2020,01,18,10,46,4.70
2020,01,18,10,47,4.80
2020,01,18,10,48,4.80
2020,01,18,10,49,4.80
2020,01,18,10,50,4.80
2020,01,18,10,51,4.80
2020,01,18,10,52,4.80
2020,01,18,10,53,4.80
2020,01,18,10,54,4.80
2020,01,18,10,55,4.80
2020,01,18,10,56,4.80
2020,01,18,10,57,4.80
2020,01,18,10,58,4.80
2020,01,18,10,59,4.70
2020,01,18,11,00,4.80
2020,01,18,11,01,4.80
2020,01,18,11,02,4.80
2020,01,18,11,03,4.80
2020,01,18,11,04,4.80
2020,01,18,11,05,4.80
2020,01,18,11,06,4.80
2020,01,18,11,07,4.80
2020,01,18,11,08,4.80
2020,01,18,11,09,4.80
2020,01,18,11,10,4.90
2020,01,18,11,11,4.90
2020,01,18,11,12,4.90
2020,01,18,11,13,4.90
2020,01,18,11,14,4.90
2020,01,18,11,15,4.90
2020,01,18,11,16,4.90
2020,01,18,11,17,4.90
2020,01,18,11,18,4.90
2020,01,18,11,19,4.90
2020,01,18,11,20,5.00
2020,01,18,11,21,5.00
2020,01,18,11,22,5.00
2020,01,18,11,23,4.90
2020,01,18,11,24,5.00
2020,01,18,11,25,5.00
2020,01,18,11,26,5.00
2020,01,18,11,27,5.00
2020,01,18,11,28,5.00
2020,01,18,11,29,5.00
2020,01,18,11,30,5.00
2020,01,18,11,31,5.10
2020,01,18,11,32,5.10
2020,01,18,11,33,5.10
2020,01,18,11,34,5.00
2020,01,18,11,35,5.00
2020,01,18,11,36,5.00
2020,01,18,11,37,5.00
2020,01,18,11,38,5.00
2020,01,18,11,39,5.00
2020,01,18,11,40,5.00
2020,01,18,11,41,5.00
2020,01,18,11,42,5.00
2020,01,18,11,43,5.10
2020,01,18,11,44,5.10
2020,01,18,11,45,5.10
2020,01,18,11,46,5.10
2020,01,18,11,47,5.10
2020,01,18,11,48,5.10
2020,01,18,11,49,5.10
2020,01,18,11,50,5.20
2020,01,18,11,51,5.20
2020,01,18,11,52,5.20
2020,01,18,11,53,5.20
2020,01,18,11,54,5.20
2020,01,18,11,55,5.20
2020,01,18,11,56,5.20
2020,01,18,11,57,5.20
2020,01,18,11,58,5.20
2020,01,18,11,59,5.20
2020,01,18,12,00,5.20
2020,01,18,12,01,5.20
2020,01,18,12,02,5.20
2020,01,18,12,03,5.20
2020,01,18,12,04,5.20
2020,01,18,12,05,5.20
2020,01,18,12,06,5.20
2020,01,18,12,07,5.20
2020,01,18,12,08,5.20
2020,01,18,12,09,5.30
2020,01,18,12,10,5.30
2020,01,18,12,11,5.30
2020,01,18,12,12,5.20
2020,01,18,12,13,5.30
2020,01,18,12,14,5.30
2020,01,18,12,15,5.30
2020,01,18,12,16,5.30
2020,01,18,12,17,5.30
2020,01,18,12,18,5.30
2020,01,18,12,19,5.30
2020,01,18,12,20,5.30
2020,01,18,12,21,5.30
2020,01,18,12,22,5.30
2020,01,18,12,23,5.40
2020,01,18,12,24,5.40
2020,01,18,12,25,5.40
2020,01,18,12,26,5.40
2020,01,18,12,27,5.40
2020,01,18,12,28,5.40
2020,01,18,12,29,5.40
2020,01,18,12,30,5.40
2020,01,18,12,31,5.40
2020,01,18,12,32,5.40
2020,01,18,12,33,5.40
2020,01,18,12,34,5.40
2020,01,18,12,35,5.40
2020,01,18,12,36,5.40
2020,01,18,12,37,5.40
2020,01,18,12,38,5.40
2020,01,18,12,39,5.40
2020,01,18,12,40,5.40
2020,01,18,12,41,5.40
2020,01,18,12,42,5.40
2020,01,18,12,43,5.40
2020,01,18,12,44,5.50
2020,01,18,12,45,5.50
2020,01,18,12,46,5.50
2020,01,18,12,47,5.50
2020,01,18,12,48,5.50
2020,01,18,12,49,5.50
2020,01,18,12,50,5.50
2020,01,18,12,51,5.50
2020,01,18,12,52,5.50
2020,01,18,12,53,5.40
2020,01,18,12,54,5.40
2020,01,18,12,55,5.40
2020,01,18,12,56,5.40
2020,01,18,12,57,5.40
2020,01,18,12,58,5.40
2020,01,18,12,59,5.40
2020,01,18,13,00,5.40
2020,01,18,13,01,5.40
2020,01,18,13,02,5.40
2020,01,18,13,03,5.40
2020,01,18,13,04,5.40
2020,01,18,13,05,5.40
2020,01,18,13,06,5.40
2020,01,18,13,07,5.40
2020,01,18,13,08,5.40
2020,01,18,13,09,5.40
2020,01,18,13,10,5.40
2020,01,18,13,11,5.50
2020,01,18,13,12,5.50
2020,01,18,13,13,5.50
2020,01,18,13,14,5.50
2020,01,18,13,15,5.50
2020,01,18,13,16,5.50
2020,01,18,13,17,5.60
2020,01,18,13,18,5.60
2020,01,18,13,19,5.60
2020,01,18,13,20,5.60
2020,01,18,13,21,5.60
2020,01,18,13,22,5.60
2020,01,18,13,23,5.60
2020,01,18,13,24,5.60
2020,01,18,13,25,5.60
2020,01,18,13,26,5.60
2020,01,18,13,27,5.60
2020,01,18,13,28,5.60
2020,01,18,13,29,5.60
2020,01,18,13,30,5.60
2020,01,18,13,31,5.60
2020,01,18,13,32,5.60
2020,01,18,13,33,5.70
2020,01,18,13,34,5.70
2020,01,18,13,35,5.60
2020,01,18,13,36,5.60
2020,01,18,13,37,5.60
2020,01,18,13,38,5.60
2020,01,18,13,39,5.70
2020,01,18,13,40,5.70
2020,01,18,13,41,5.70
2020,01,18,13,42,5.70
2020,01,18,13,43,5.70
2020,01,18,13,44,5.70
2020,01,18,13,45,5.70
2020,01,18,13,46,5.70
2020,01,18,13,47,5.70
2020,01,18,13,48,5.70
2020,01,18,13,49,5.70
2020,01,18,13,50,5.70
2020,01,18,13,51,5.70
2020,01,18,13,52,5.70
2020,01,18,13,53,5.70
2020,01,18,13,54,5.70
2020,01,18,13,55,5.70
2020,01,18,13,56,5.70
2020,01,18,13,57,5.70
2020,01,18,13,58,5.70
2020,01,18,13,59,5.70
2020,01,18,14,00,5.70
2020,01,18,14,01,5.70
2020,01,18,14,02,5.70
2020,01,18,14,03,5.70
2020,01,18,14,04,5.70
2020,01,18,14,05,5.70
2020,01,18,14,06,5.70
2020,01,18,14,07,5.70
2020,01,18,14,08,5.70
2020,01,18,14,09,5.70
2020,01,18,14,10,5.70
2020,01,18,14,11,5.70
2020,01,18,14,12,5.60
2020,01,18,14,13,5.70
2020,01,18,14,14,5.70
2020,01,18,14,15,5.70
2020,01,18,14,16,5.70
2020,01,18,14,17,5.70
2020,01,18,14,18,5.70
2020,01,18,14,19,5.70
2020,01,18,14,20,5.70
2020,01,18,14,21,5.80
2020,01,18,14,22,5.80
2020,01,18,14,23,5.80
2020,01,18,14,24,5.80
2020,01,18,14,25,5.80
2020,01,18,14,26,5.80
2020,01,18,14,27,5.80
2020,01,18,14,28,5.80
2020,01,18,14,29,5.80
2020,01,18,14,30,5.80
2020,01,18,14,31,5.80
2020,01,18,14,32,5.80
2020,01,18,14,33,5.80
2020,01,18,14,34,5.80
2020,01,18,14,35,5.80
2020,01,18,14,36,5.80
2020,01,18,14,37,5.80
2020,01,18,14,38,5.80
2020,01,18,14,39,5.80
2020,01,18,14,40,5.80
2020,01,18,14,41,5.80
2020,01,18,14,42,5.80
2020,01,18,14,43,5.80
2020,01,18,14,44,5.80
2020,01,18,14,45,5.80
2020,01,18,14,46,5.80
2020,01,18,14,47,5.80
2020,01,18,14,48,5.80
2020,01,18,14,49,5.80
2020,01,18,14,50,5.80
2020,01,18,14,51,5.80
2020,01,18,14,52,5.80
2020,01,18,14,53,5.80
2020,01,18,14,54,5.80
2020,01,18,14,55,5.80
2020,01,18,14,56,5.80
2020,01,18,14,57,5.80
2020,01,18,14,58,5.80
2020,01,18,14,59,5.90
2020,01,18,15,00,5.80
2020,01,18,15,01,5.80
2020,01,18,15,02,5.90
2020,01,18,15,03,5.90
2020,01,18,15,04,5.90
2020,01,18,15,05,5.90
2020,01,18,15,06,5.90
2020,01,18,15,07,5.90
2020,01,18,15,08,5.90
2020,01,18,15,09,5.90
2020,01,18,15,10,5.90
2020,01,18,15,11,5.90
2020,01,18,15,12,5.90
2020,01,18,15,13,5.80
2020,01,18,15,14,5.80
2020,01,18,15,15,5.80
2020,01,18,15,16,5.80
2020,01,18,15,17,5.90
2020,01,18,15,18,5.90
2020,01,18,15,19,5.90
2020,01,18,15,20,5.90
2020,01,18,15,21,5.90
2020,01,18,15,22,5.90
2020,01,18,15,23,5.80
2020,01,18,15,24,5.80
2020,01,18,15,25,5.80
2020,01,18,15,26,5.80
2020,01,18,15,27,5.80
2020,01,18,15,28,5.80
2020,01,18,15,29,5.80
2020,01,18,15,30,5.80
2020,01,18,15,31,5.80
2020,01,18,15,32,5.80
2020,01,18,15,33,5.80
2020,01,18,15,34,5.90
2020,01,18,15,35,5.90
2020,01,18,15,36,5.80
2020,01,18,15,37,5.80
2020,01,18,15,38,5.80
2020,01,18,15,39,5.80
2020,01,18,15,40,5.80
2020,01,18,15,41,5.80
2020,01,18,15,42,5.80
2020,01,18,15,43,5.80
2020,01,18,15,44,5.90
2020,01,18,15,45,5.90
2020,01,18,15,46,5.90
2020,01,18,15,47,5.90
2020,01,18,15,48,5.90
2020,01,18,15,49,5.80
2020,01,18,15,50,5.80
2020,01,18,15,51,5.80
2020,01,18,15,52,5.90
2020,01,18,15,53,5.80
2020,01,18,15,54,5.80
2020,01,18,15,55,5.90
2020,01,18,15,56,5.90
2020,01,18,15,57,5.90
2020,01,18,15,58,5.90
2020,01,18,15,59,5.90
2020,01,18,16,00,5.90
2020,01,18,16,01,5.90
2020,01,18,16,02,5.90
2020,01,18,16,03,5.90
2020,01,18,16,04,5.90
2020,01,18,16,05,5.80
2020,01,18,16,06,5.80
2020,01,18,16,07,5.80
2020,01,18,16,08,5.80
2020,01,18,16,09,5.90
2020,01,18,16,10,5.90
2020,01,18,16,11,5.90
2020,01,18,16,12,5.90
2020,01,18,16,13,5.90
2020,01,18,16,14,5.90
2020,01,18,16,15,5.80
2020,01,18,16,16,5.90
2020,01,18,16,17,5.90
2020,01,18,16,18,5.90
2020,01,18,16,19,5.90
2020,01,18,16,20,5.90
2020,01,18,16,21,5.90
2020,01,18,16,22,5.90
2020,01,18,16,23,5.90
2020,01,18,16,24,5.90
2020,01,18,16,25,5.90
2020,01,18,16,26,5.90
2020,01,18,16,27,5.90
2020,01,18,16,28,5.90
2020,01,18,16,29,5.90
2020,01,18,16,30,5.90
2020,01,18,16,31,5.90
2020,01,18,16,32,5.90
2020,01,18,16,33,5.90
2020,01,18,16,34,5.90
2020,01,18,16,35,5.90
2020,01,18,16,36,5.90
2020,01,18,16,37,5.90
2020,01,18,16,38,5.90
2020,01,18,16,39,5.90
2020,01,18,16,40,6.00
2020,01,18,16,41,6.00
2020,01,18,16,42,5.90
2020,01,18,16,43,5.90
2020,01,18,16,44,5.90
2020,01,18,16,45,5.90
2020,01,18,16,46,5.90
2020,01,18,16,47,5.90
2020,01,18,16,48,5.90
2020,01,18,16,49,6.00
2020,01,18,16,50,6.00
2020,01,18,16,51,6.00
2020,01,18,16,52,6.00
2020,01,18,16,53,6.00
2020,01,18,16,54,6.00
2020,01,18,16,55,5.90
2020,01,18,16,56,5.90
2020,01,18,16,57,5.90
2020,01,18,16,58,5.90
2020,01,18,16,59,5.90
2020,01,18,17,00,5.90
2020,01,18,17,01,5.90
2020,01,18,17,02,5.90
2020,01,18,17,03,5.90
2020,01,18,17,04,5.90
2020,01,18,17,05,5.90
2020,01,18,17,06,5.90
2020,01,18,17,07,5.90
2020,01,18,17,08,5.90
2020,01,18,17,09,5.90
2020,01,18,17,10,5.90
2020,01,18,17,11,5.90
2020,01,18,17,12,5.90
2020,01,18,17,13,5.90
2020,01,18,17,14,5.90
2020,01,18,17,15,5.90
2020,01,18,17,16,5.90
2020,01,18,17,17,5.90
2020,01,18,17,18,5.90
2020,01,18,17,19,5.90
2020,01,18,17,20,5.90
2020,01,18,17,21,5.90
2020,01,18,17,22,5.90
2020,01,18,17,23,6.00
2020,01,18,17,24,5.90
2020,01,18,17,25,5.90
2020,01,18,17,26,5.90
2020,01,18,17,27,5.90
2020,01,18,17,28,5.90
2020,01,18,17,29,5.90
2020,01,18,17,30,5.90
2020,01,18,17,31,5.90
2020,01,18,17,32,5.90
2020,01,18,17,33,5.90
2020,01,18,17,34,5.90
2020,01,18,17,35,5.90
2020,01,18,17,36,6.00
2020,01,18,17,37,5.90
2020,01,18,17,38,5.90
2020,01,18,17,39,6.00
2020,01,18,17,40,6.00
2020,01,18,17,41,6.00
2020,01,18,17,42,6.00
2020,01,18,17,43,6.00
2020,01,18,17,44,6.00
2020,01,18,17,45,6.00
2020,01,18,17,46,6.00
2020,01,18,17,47,6.00
2020,01,18,17,48,6.00
2020,01,18,17,49,6.00
2020,01,18,17,50,6.00
2020,01,18,17,51,6.00
2020,01,18,17,52,6.00
2020,01,18,17,53,6.00
2020,01,18,17,54,6.00
2020,01,18,17,55,6.00
2020,01,18,17,56,6.00
2020,01,18,17,57,6.00
2020,01,18,17,58,6.00
2020,01,18,17,59,6.00
2020,01,18,18,00,6.00
2020,01,18,18,01,6.00
2020,01,18,18,02,6.00
2020,01,18,18,03,6.00
2020,01,18,18,04,6.00
2020,01,18,18,05,6.00
2020,01,18,18,06,6.10
2020,01,18,18,07,6.10
2020,01,18,18,08,6.10
2020,01,18,18,09,6.10
2020,01,18,18,10,6.10
2020,01,18,18,11,6.10
2020,01,18,18,12,6.10
2020,01,18,18,13,6.10
2020,01,18,18,14,6.10
2020,01,18,18,15,6.10
2020,01,18,18,16,6.10
2020,01,18,18,17,6.10
2020,01,18,18,18,6.10
2020,01,18,18,19,6.10
2020,01,18,18,20,6.10
2020,01,18,18,21,6.10
2020,01,18,18,22,6.10
2020,01,18,18,23,6.10
2020,01,18,18,24,6.10
2020,01,18,18,25,6.10
2020,01,18,18,26,6.10
2020,01,18,18,27,6.10
2020,01,18,18,28,6.10
2020,01,18,18,29,6.10
2020,01,18,18,30,6.10
2020,01,18,18,31,6.10
2020,01,18,18,32,6.10
2020,01,18,18,33,6.10
2020,01,18,18,34,6.10
2020,01,18,18,35,6.10
2020,01,18,18,36,6.10
2020,01,18,18,37,6.10
2020,01,18,18,38,6.10
2020,01,18,18,39,6.10
2020,01,18,18,40,6.10
2020,01,18,18,41,6.10
2020,01,18,18,42,6.10
2020,01,18,18,43,6.10
2020,01,18,18,44,6.10
2020,01,18,18,45,6.00
2020,01,18,18,46,6.00
2020,01,18,18,47,6.00
2020,01,18,18,48,6.00
2020,01,18,18,49,6.00
2020,01,18,18,50,6.10
2020,01,18,18,51,6.10
2020,01,18,18,52,6.10
2020,01,18,18,53,6.10
2020,01,18,18,54,6.10
2020,01,18,18,55,6.10
2020,01,18,18,56,6.10
2020,01,18,18,57,6.10
2020,01,18,18,58,6.10
2020,01,18,18,59,6.20
2020,01,18,19,00,6.20
2020,01,18,19,01,6.10
2020,01,18,19,02,6.10
2020,01,18,19,03,6.10
2020,01,18,19,04,6.10
2020,01,18,19,05,6.10
2020,01,18,19,06,6.10
2020,01,18,19,07,6.10
2020,01,18,19,08,6.10
2020,01,18,19,09,6.10
2020,01,18,19,10,6.10
2020,01,18,19,11,6.10
2020,01,18,19,12,6.10
2020,01,18,19,13,6.10
2020,01,18,19,14,6.10
2020,01,18,19,15,6.10
2020,01,18,19,16,6.10
2020,01,18,19,17,6.10
2020,01,18,19,18,6.20
2020,01,18,19,19,6.10
2020,01,18,19,20,6.10
2020,01,18,19,21,6.20
2020,01,18,19,22,6.10
2020,01,18,19,23,6.10
2020,01,18,19,24,6.20
2020,01,18,19,25,6.20
2020,01,18,19,26,6.20
2020,01,18,19,27,6.20
2020,01,18,19,28,6.20
2020,01,18,19,29,6.20
2020,01,18,19,30,6.20
2020,01,18,19,31,6.20
2020,01,18,19,32,6.10
2020,01,18,19,33,6.20
2020,01,18,19,34,6.20
2020,01,18,19,35,6.20
2020,01,18,19,36,6.20
2020,01,18,19,37,6.20
2020,01,18,19,38,6.20
2020,01,18,19,39,6.20
2020,01,18,19,40,6.20
2020,01,18,19,41,6.20
2020,01,18,19,42,6.20
2020,01,18,19,43,6.20
2020,01,18,19,44,6.20
2020,01,18,19,45,6.20
2020,01,18,19,46,6.20
2020,01,18,19,47,6.20
2020,01,18,19,48,6.20
2020,01,18,19,49,6.20
2020,01,18,19,50,6.20
2020,01,18,19,51,6.20
2020,01,18,19,52,6.20
2020,01,18,19,53,6.20
2020,01,18,19,54,6.20
2020,01,18,19,55,6.20
2020,01,18,19,56,6.20
2020,01,18,19,57,6.20
2020,01,18,19,58,6.20
2020,01,18,19,59,6.20
2020,01,18,20,00,6.20
2020,01,18,20,01,6.30
2020,01,18,20,02,6.30
2020,01,18,20,03,6.30
2020,01,18,20,04,6.30
2020,01,18,20,05,6.30
2020,01,18,20,06,6.30
2020,01,18,20,07,6.30
2020,01,18,20,08,6.30
2020,01,18,20,09,6.30
2020,01,18,20,10,6.30
2020,01,18,20,11,6.30
2020,01,18,20,12,6.30
2020,01,18,20,13,6.30
2020,01,18,20,14,6.30
2020,01,18,20,15,6.30
2020,01,18,20,16,6.30
2020,01,18,20,17,6.20
2020,01,18,20,18,6.20
2020,01,18,20,19,6.20
2020,01,18,20,20,6.20
2020,01,18,20,21,6.30
2020,01,18,20,22,6.30
2020,01,18,20,23,6.30
2020,01,18,20,24,6.30
2020,01,18,20,25,6.30
2020,01,18,20,26,6.30
2020,01,18,20,27,6.30
2020,01,18,20,28,6.30
2020,01,18,20,29,6.30
2020,01,18,20,30,6.30
2020,01,18,20,31,6.30
2020,01,18,20,32,6.30
2020,01,18,20,33,6.30
2020,01,18,20,34,6.30
2020,01,18,20,35,6.30
2020,01,18,20,36,6.40
2020,01,18,20,37,6.40
2020,01,18,20,38,6.40
2020,01,18,20,39,6.40
2020,01,18,20,40,6.40
2020,01,18,20,41,6.40
2020,01,18,20,42,6.40
2020,01,18,20,43,6.40
2020,01,18,20,44,6.40
2020,01,18,20,45,6.40
2020,01,18,20,46,6.40
2020,01,18,20,47,6.40
2020,01,18,20,48,6.40
2020,01,18,20,49,6.40
2020,01,18,20,50,6.40
2020,01,18,20,51,6.40
2020,01,18,20,52,6.40
2020,01,18,20,53,6.40
2020,01,18,20,54,6.40
2020,01,18,20,55,6.40
2020,01,18,20,56,6.40
2020,01,18,20,57,6.40
2020,01,18,20,58,6.40
2020,01,18,20,59,6.40
2020,01,18,21,00,6.40
2020,01,18,21,01,6.40
2020,01,18,21,02,6.40
2020,01,18,21,03,6.40
2020,01,18,21,04,6.40
2020,01,18,21,05,6.40
2020,01,18,21,06,6.40
2020,01,18,21,07,6.40
2020,01,18,21,08,6.50
2020,01,18,21,09,6.50
2020,01,18,21,10,6.50
2020,01,18,21,11,6.50
2020,01,18,21,12,6.50
2020,01,18,21,13,6.50
2020,01,18,21,14,6.50
2020,01,18,21,15,6.50
2020,01,18,21,16,6.50
2020,01,18,21,17,6.50
2020,01,18,21,18,6.50
2020,01,18,21,19,6.50
2020,01,18,21,20,6.50
2020,01,18,21,21,6.50
2020,01,18,21,22,6.40
2020,01,18,21,23,6.40
2020,01,18,21,24,6.40
2020,01,18,21,25,6.40
2020,01,18,21,26,6.50
2020,01,18,21,27,6.40
2020,01,18,21,28,6.40
2020,01,18,21,29,6.50
2020,01,18,21,30,6.50
2020,01,18,21,31,6.50
2020,01,18,21,32,6.50
2020,01,18,21,33,6.50
2020,01,18,21,34,6.50
2020,01,18,21,35,6.50
2020,01,18,21,36,6.60
2020,01,18,21,37,6.60
2020,01,18,21,38,6.60
2020,01,18,21,39,6.60
2020,01,18,21,40,6.60
2020,01,18,21,41,6.60
2020,01,18,21,42,6.60
2020,01,18,21,43,6.60
2020,01,18,21,44,6.60
2020,01,18,21,45,6.60